Time,TemperatureF,DewpointF,PressureIn,WindDirection,WindDirectionDegrees,WindSpeedMPH,WindSpeedGustMPH,Humidity,HourlyPrecipIn,Conditions,Clouds,dailyrainin,SoftwareType,DateUTC
2013-07-11 00:01:00,65.0,42.0,-100.00,North,-999,0.0,0.0,43,-99.99,,,-99.99,,2013-07-11 07:01:00,
2013-07-11 00:22:00,64.0,42.0,-100.00,North,-999,0.0,0.0,44,-99.99,,,-99.99,,2013-07-11 07:22:00,
2013-07-11 00:32:00,63.0,41.0,-100.00,North,-999,0.0,0.0,45,-99.99,,,-99.99,,2013-07-11 07:32:00,
2013-07-11 00:45:00,62.0,41.0,-100.00,North,-999,0.0,0.0,46,-99.99,,,-99.99,,2013-07-11 07:45:00,
2013-07-11 00:53:00,62.0,41.0,-100.00,North,-999,0.0,0.0,46,-99.99,,,-99.99,,2013-07-11 07:53:00,
2013-07-11 01:02:00,62.0,42.0,-100.00,North,-999,0.0,0.0,48,-99.99,,,-99.99,,2013-07-11 08:02:00,
2013-07-11 01:22:00,62.0,43.0,-100.00,North,-999,0.0,0.0,50,-99.99,,,-99.99,,2013-07-11 08:22:00,
2013-07-11 01:33:00,61.0,44.0,-100.00,North,-999,0.0,0.0,53,-99.99,,,-99.99,,2013-07-11 08:33:00,
2013-07-11 01:43:00,61.0,45.0,-100.00,North,-999,0.0,0.0,55,-99.99,,,-99.99,,2013-07-11 08:43:00,
2013-07-11 01:53:00,61.0,45.0,-100.00,North,-999,0.0,0.0,55,-99.99,,,-99.99,,2013-07-11 08:53:00,
2013-07-11 02:02:00,60.0,45.0,-100.00,North,-999,0.0,0.0,58,-99.99,,,-99.99,,2013-07-11 09:02:00,
2013-07-11 02:21:00,60.0,46.0,-100.00,North,-999,0.0,0.0,59,-99.99,,,-99.99,,2013-07-11 09:21:00,
2013-07-11 02:33:00,59.0,46.0,-100.00,North,-999,0.0,0.0,60,-99.99,,,-99.99,,2013-07-11 09:33:00,
2013-07-11 02:43:00,59.0,45.0,-100.00,North,-999,0.0,0.0,59,-99.99,,,-99.99,,2013-07-11 09:43:00,
2013-07-11 02:53:00,59.0,45.0,-100.00,North,-999,0.0,0.0,59,-99.99,,,-99.99,,2013-07-11 09:53:00,
2013-07-11 03:01:00,59.0,45.0,-100.00,North,-999,0.0,0.0,58,-99.99,,,-99.99,,2013-07-11 10:01:00,
2013-07-11 03:21:00,59.0,44.0,-100.00,North,-999,0.0,0.0,58,-99.99,,,-99.99,,2013-07-11 10:21:00,
2013-07-11 03:33:00,58.0,44.0,-100.00,North,-999,0.0,0.0,58,-99.99,,,-99.99,,2013-07-11 10:33:00,
2013-07-11 03:52:00,57.0,43.0,-100.00,North,-999,0.0,0.0,59,-99.99,,,-99.99,,2013-07-11 10:52:00,
2013-07-11 04:01:00,56.0,43.0,-100.00,North,-999,0.0,0.0,61,-99.99,,,-99.99,,2013-07-11 11:01:00,
2013-07-11 04:22:00,56.0,43.0,-100.00,North,-999,0.0,0.0,63,-99.99,,,-99.99,,2013-07-11 11:22:00,
2013-07-11 04:32:00,55.0,43.0,-100.00,North,-999,0.0,0.0,64,-99.99,,,-99.99,,2013-07-11 11:32:00,
2013-07-11 04:43:00,55.0,43.0,-100.00,North,-999,0.0,0.0,64,-99.99,,,-99.99,,2013-07-11 11:43:00,
2013-07-11 04:53:00,55.0,43.0,-100.00,North,-999,0.0,0.0,64,-99.99,,,-99.99,,2013-07-11 11:53:00,
2013-07-11 05:01:00,55.0,43.0,-100.00,North,-999,0.0,0.0,64,-99.99,,,-99.99,,2013-07-11 12:01:00,
2013-07-11 05:12:00,54.0,43.0,-100.00,North,-999,0.0,0.0,66,-99.99,,,-99.99,,2013-07-11 12:12:00,
2013-07-11 05:22:00,54.0,43.0,-100.00,North,-999,0.0,0.0,66,-99.99,,,-99.99,,2013-07-11 12:22:00,
2013-07-11 05:33:00,53.0,43.0,-100.00,North,-999,0.0,0.0,68,-99.99,,,-99.99,,2013-07-11 12:33:00,
2013-07-11 05:43:00,52.0,43.0,-100.00,North,-999,0.0,0.0,70,-99.99,,,-99.99,,2013-07-11 12:43:00,
2013-07-11 05:56:00,52.0,43.0,-100.00,North,-999,0.0,0.0,70,-99.99,,,-99.99,,2013-07-11 12:56:00,
2013-07-11 06:01:00,51.0,42.0,-100.00,North,-999,0.0,0.0,72,-99.99,,,-99.99,,2013-07-11 13:01:00,
2013-07-11 06:11:00,51.0,42.0,-100.00,North,-999,0.0,0.0,72,-99.99,,,-99.99,,2013-07-11 13:11:00,
2013-07-11 06:22:00,50.0,42.0,-100.00,North,-999,0.0,0.0,74,-99.99,,,-99.99,,2013-07-11 13:22:00,
2013-07-11 06:33:00,50.0,42.0,-100.00,North,-999,0.0,0.0,75,-99.99,,,-99.99,,2013-07-11 13:33:00,
2013-07-11 06:44:00,49.0,42.0,-100.00,North,-999,0.0,0.0,76,-99.99,,,-99.99,,2013-07-11 13:44:00,
2013-07-11 06:54:00,49.0,42.0,-100.00,North,-999,0.0,0.0,76,-99.99,,,-99.99,,2013-07-11 13:54:00,
2013-07-11 07:13:00,50.0,43.0,-100.00,North,-999,0.0,0.0,76,-99.99,,,-99.99,,2013-07-11 14:13:00,
2013-07-11 07:22:00,52.0,44.0,-100.00,North,-999,0.0,0.0,74,-99.99,,,-99.99,,2013-07-11 14:22:00,
2013-07-11 08:12:00,57.0,46.0,-100.00,North,-999,0.0,0.0,66,-99.99,,,-99.99,,2013-07-11 15:12:00,
2013-07-11 08:23:00,57.0,46.0,-100.00,North,-999,0.0,0.0,66,-99.99,,,-99.99,,2013-07-11 15:23:00,
2013-07-11 08:34:00,58.0,46.0,-100.00,North,-999,0.0,0.0,66,-99.99,,,-99.99,,2013-07-11 15:34:00,
2013-07-11 08:44:00,59.0,46.0,-100.00,North,-999,0.0,0.0,64,-99.99,,,-99.99,,2013-07-11 15:44:00,
2013-07-11 08:56:00,59.0,46.0,-100.00,North,-999,0.0,0.0,64,-99.99,,,-99.99,,2013-07-11 15:56:00,
2013-07-11 09:22:00,60.0,46.0,-100.00,North,-999,0.0,0.0,60,-99.99,,,-99.99,,2013-07-11 16:22:00,
2013-07-11 09:33:00,62.0,47.0,-100.00,North,-999,0.0,0.0,58,-99.99,,,-99.99,,2013-07-11 16:33:00,
2013-07-11 09:44:00,63.0,47.0,-100.00,North,-999,0.0,0.0,56,-99.99,,,-99.99,,2013-07-11 16:44:00,
2013-07-11 09:56:00,63.0,47.0,-100.00,North,-999,0.0,0.0,56,-99.99,,,-99.99,,2013-07-11 16:56:00,
2013-07-11 10:02:00,64.0,47.0,-100.00,North,-999,0.0,0.0,53,-99.99,,,-99.99,,2013-07-11 17:02:00,
2013-07-11 10:24:00,67.0,47.0,-100.00,North,-999,0.0,0.0,49,-99.99,,,-99.99,,2013-07-11 17:24:00,
2013-07-11 10:34:00,69.0,46.0,-100.00,North,-999,0.0,0.0,44,-99.99,,,-99.99,,2013-07-11 17:34:00,
2013-07-11 10:44:00,70.0,45.0,-100.00,North,-999,0.0,0.0,40,-99.99,,,-99.99,,2013-07-11 17:44:00,
2013-07-11 10:54:00,70.0,45.0,-100.00,North,-999,0.0,0.0,40,-99.99,,,-99.99,,2013-07-11 17:54:00,
2013-07-11 11:03:00,71.0,45.0,-100.00,North,-999,0.0,0.0,39,-99.99,,,-99.99,,2013-07-11 18:03:00,
2013-07-11 11:22:00,72.0,44.0,-100.00,North,-999,0.0,0.0,37,-99.99,,,-99.99,,2013-07-11 18:22:00,
2013-07-11 11:33:00,75.0,44.0,-100.00,North,-999,0.0,0.0,34,-99.99,,,-99.99,,2013-07-11 18:33:00,
2013-07-11 12:12:00,75.0,41.0,-100.00,North,-999,0.0,0.0,30,-99.99,,,-99.99,,2013-07-11 19:12:00,
2013-07-11 12:22:00,77.0,42.0,-100.00,North,-999,0.0,0.0,29,-99.99,,,-99.99,,2013-07-11 19:22:00,
2013-07-11 12:34:00,77.0,40.0,-100.00,North,-999,0.0,0.0,27,-99.99,,,-99.99,,2013-07-11 19:34:00,
2013-07-11 12:57:00,77.0,40.0,-100.00,North,-999,0.0,0.0,27,-99.99,,,-99.99,,2013-07-11 19:57:00,
2013-07-11 13:03:00,77.0,41.0,-100.00,North,-999,0.0,0.0,27,-99.99,,,-99.99,,2013-07-11 20:03:00,
2013-07-11 13:12:00,77.0,41.0,-100.00,North,-999,0.0,0.0,27,-99.99,,,-99.99,,2013-07-11 20:12:00,
2013-07-11 13:24:00,78.0,41.0,-100.00,North,-999,0.0,0.0,27,-99.99,,,-99.99,,2013-07-11 20:24:00,
2013-07-11 13:34:00,79.0,42.0,-100.00,North,-999,0.0,0.0,27,-99.99,,,-99.99,,2013-07-11 20:34:00,
2013-07-11 13:45:00,81.0,43.0,-100.00,North,-999,0.0,0.0,26,-99.99,,,-99.99,,2013-07-11 20:45:00,
2013-07-11 13:54:00,81.0,43.0,-100.00,North,-999,0.0,0.0,26,-99.99,,,-99.99,,2013-07-11 20:54:00,
2013-07-11 14:02:00,81.0,42.0,-100.00,North,-999,0.0,0.0,25,-99.99,,,-99.99,,2013-07-11 21:02:00,
2013-07-11 14:13:00,81.0,42.0,-100.00,North,-999,0.0,0.0,25,-99.99,,,-99.99,,2013-07-11 21:13:00,
2013-07-11 14:44:00,82.0,43.0,-100.00,North,-999,0.0,0.0,26,-99.99,,,-99.99,,2013-07-11 21:44:00,
2013-07-11 14:57:00,81.0,42.0,-100.00,North,-999,0.0,0.0,25,-99.99,,,-99.99,,2013-07-11 21:57:00,
2013-07-11 15:32:00,83.0,43.0,-100.00,North,-999,0.0,0.0,25,-99.99,,,-99.99,,2013-07-11 22:32:00,
2013-07-11 15:45:00,83.0,43.0,-100.00,North,-999,0.0,0.0,25,-99.99,,,-99.99,,2013-07-11 22:45:00,
2013-07-11 15:54:00,83.0,43.0,-100.00,North,-999,0.0,0.0,25,-99.99,,,-99.99,,2013-07-11 22:54:00,
2013-07-11 16:01:00,83.0,44.0,-100.00,North,-999,0.0,0.0,25,-99.99,,,-99.99,,2013-07-11 23:01:00,
2013-07-11 16:11:00,83.0,44.0,-100.00,North,-999,0.0,0.0,25,-99.99,,,-99.99,,2013-07-11 23:11:00,
2013-07-11 16:23:00,82.0,43.0,-100.00,North,-999,0.0,0.0,25,-99.99,,,-99.99,,2013-07-11 23:23:00,
2013-07-11 16:33:00,81.0,42.0,-100.00,North,-999,0.0,0.0,25,-99.99,,,-99.99,,2013-07-11 23:33:00,
2013-07-11 16:45:00,83.0,43.0,-100.00,North,-999,0.0,0.0,25,-99.99,,,-99.99,,2013-07-11 23:45:00,
2013-07-11 17:03:00,83.0,42.0,-100.00,North,-999,0.0,0.0,24,-99.99,,,-99.99,,2013-07-12 00:03:00,
2013-07-11 17:12:00,81.0,42.0,-100.00,North,-999,0.0,0.0,25,-99.99,,,-99.99,,2013-07-12 00:12:00,
2013-07-11 17:23:00,81.0,42.0,-100.00,North,-999,0.0,0.0,25,-99.99,,,-99.99,,2013-07-12 00:23:00,
2013-07-11 17:57:00,80.0,43.0,-100.00,North,-999,0.0,0.0,27,-99.99,,,-99.99,,2013-07-12 00:57:00,
2013-07-11 18:02:00,79.0,43.0,-100.00,North,-999,0.0,0.0,28,-99.99,,,-99.99,,2013-07-12 01:02:00,
2013-07-11 18:12:00,79.0,43.0,-100.00,North,-999,0.0,0.0,28,-99.99,,,-99.99,,2013-07-12 01:12:00,
2013-07-11 18:23:00,79.0,44.0,-100.00,North,-999,0.0,0.0,29,-99.99,,,-99.99,,2013-07-12 01:23:00,
2013-07-11 18:32:00,79.0,44.0,-100.00,North,-999,0.0,0.0,29,-99.99,,,-99.99,,2013-07-12 01:32:00,
2013-07-11 18:44:00,77.0,44.0,-100.00,North,-999,0.0,0.0,30,-99.99,,,-99.99,,2013-07-12 01:44:00,
2013-07-11 18:55:00,77.0,44.0,-100.00,North,-999,0.0,0.0,30,-99.99,,,-99.99,,2013-07-12 01:55:00,
2013-07-11 19:02:00,77.0,44.0,-100.00,North,-999,0.0,0.0,30,-99.99,,,-99.99,,2013-07-12 02:02:00,
2013-07-11 19:13:00,75.0,42.0,-100.00,North,-999,0.0,0.0,31,-99.99,,,-99.99,,2013-07-12 02:13:00,
2013-07-11 19:24:00,75.0,42.0,-100.00,North,-999,0.0,0.0,31,-99.99,,,-99.99,,2013-07-12 02:24:00,
2013-07-11 19:34:00,73.0,42.0,-100.00,North,-999,0.0,0.0,32,-99.99,,,-99.99,,2013-07-12 02:34:00,
2013-07-11 19:43:00,72.0,42.0,-100.00,North,-999,0.0,0.0,34,-99.99,,,-99.99,,2013-07-12 02:43:00,
2013-07-11 19:55:00,72.0,42.0,-100.00,North,-999,0.0,0.0,34,-99.99,,,-99.99,,2013-07-12 02:55:00,
2013-07-11 20:02:00,71.0,42.0,-100.00,North,-999,0.0,0.0,35,-99.99,,,-99.99,,2013-07-12 03:02:00,
2013-07-11 20:13:00,69.0,41.0,-100.00,North,-999,0.0,0.0,36,-99.99,,,-99.99,,2013-07-12 03:13:00,
2013-07-11 20:23:00,69.0,41.0,-100.00,North,-999,0.0,0.0,36,-99.99,,,-99.99,,2013-07-12 03:23:00,
2013-07-11 20:33:00,68.0,41.0,-100.00,North,-999,0.0,0.0,37,-99.99,,,-99.99,,2013-07-12 03:33:00,
2013-07-11 20:55:00,67.0,41.0,-100.00,North,-999,0.0,0.0,38,-99.99,,,-99.99,,2013-07-12 03:55:00,
2013-07-11 21:01:00,66.0,41.0,-100.00,North,-999,0.0,0.0,39,-99.99,,,-99.99,,2013-07-12 04:01:00,
2013-07-11 21:11:00,65.0,41.0,-100.00,North,-999,0.0,0.0,41,-99.99,,,-99.99,,2013-07-12 04:11:00,
2013-07-11 21:21:00,65.0,41.0,-100.00,North,-999,0.0,0.0,41,-99.99,,,-99.99,,2013-07-12 04:21:00,
2013-07-11 21:32:00,64.0,40.0,-100.00,North,-999,0.0,0.0,42,-99.99,,,-99.99,,2013-07-12 04:32:00,
2013-07-11 21:43:00,63.0,40.0,-100.00,North,-999,0.0,0.0,44,-99.99,,,-99.99,,2013-07-12 04:43:00,
2013-07-11 21:53:00,63.0,40.0,-100.00,North,-999,0.0,0.0,44,-99.99,,,-99.99,,2013-07-12 04:53:00,
2013-07-11 22:02:00,61.0,40.0,-100.00,North,-999,0.0,0.0,46,-99.99,,,-99.99,,2013-07-12 05:02:00,
2013-07-11 22:11:00,60.0,40.0,-100.00,North,-999,0.0,0.0,48,-99.99,,,-99.99,,2013-07-12 05:11:00,
2013-07-11 22:22:00,60.0,40.0,-100.00,North,-999,0.0,0.0,48,-99.99,,,-99.99,,2013-07-12 05:22:00,
2013-07-11 22:32:00,59.0,40.0,-100.00,North,-999,0.0,0.0,50,-99.99,,,-99.99,,2013-07-12 05:32:00,
2013-07-11 22:53:00,57.0,40.0,-100.00,North,-999,0.0,0.0,53,-99.99,,,-99.99,,2013-07-12 05:53:00,
2013-07-11 23:01:00,56.0,41.0,-100.00,North,-999,0.0,0.0,55,-99.99,,,-99.99,,2013-07-12 06:01:00,
2013-07-11 23:11:00,56.0,41.0,-100.00,North,-999,0.0,0.0,55,-99.99,,,-99.99,,2013-07-12 06:11:00,
2013-07-11 23:22:00,56.0,41.0,-100.00,North,-999,0.0,0.0,57,-99.99,,,-99.99,,2013-07-12 06:22:00,
2013-07-11 23:32:00,55.0,41.0,-100.00,North,-999,0.0,0.0,59,-99.99,,,-99.99,,2013-07-12 06:32:00,